Year,Month,Day,Hour,Minute,Value (Times are PST for temperature in C)
2024,01,12,00,00,-8.50
2024,01,12,00,01,-8.50
2024,01,12,00,02,-8.50
2024,01,12,00,03,-8.50
2024,01,12,00,04,-8.50
2024,01,12,00,05,-8.50
2024,01,12,00,06,-8.50
2024,01,12,00,07,-8.50
2024,01,12,00,08,-8.50
2024,01,12,00,09,-8.50
2024,01,12,00,10,-8.50
2024,01,12,00,11,-8.50
2024,01,12,00,12,-8.50
2024,01,12,00,13,-8.50
2024,01,12,00,14,-8.60
2024,01,12,00,15,-8.60
2024,01,12,00,16,-8.60
2024,01,12,00,17,-8.60
2024,01,12,00,18,-8.60
2024,01,12,00,19,-8.60
2024,01,12,00,20,-8.60
2024,01,12,00,21,-8.60
2024,01,12,00,22,-8.60
2024,01,12,00,23,-8.60
2024,01,12,00,24,-8.60
2024,01,12,00,25,-8.60
2024,01,12,00,26,-8.60
2024,01,12,00,27,-8.60
2024,01,12,00,28,-8.60
2024,01,12,00,29,-8.60
2024,01,12,00,30,-8.60
2024,01,12,00,31,-8.60
2024,01,12,00,32,-8.60
2024,01,12,00,33,-8.70
2024,01,12,00,34,-8.70
2024,01,12,00,35,-8.70
2024,01,12,00,36,-8.70
2024,01,12,00,37,-8.70
2024,01,12,00,38,-8.70
2024,01,12,00,39,-8.70
2024,01,12,00,40,-8.70
2024,01,12,00,41,-8.70
2024,01,12,00,42,-8.70
2024,01,12,00,43,-8.70
2024,01,12,00,44,-8.80
2024,01,12,00,45,-8.80
2024,01,12,00,46,-8.80
2024,01,12,00,47,-8.80
2024,01,12,00,48,-8.80
2024,01,12,00,49,-8.80
2024,01,12,00,50,-8.80
2024,01,12,00,51,-8.80
2024,01,12,00,52,-8.80
2024,01,12,00,53,-8.80
2024,01,12,00,54,-8.80
2024,01,12,00,55,-8.70
2024,01,12,00,56,-8.70
2024,01,12,00,57,-8.70
2024,01,12,00,58,-8.70
2024,01,12,00,59,-8.70
2024,01,12,01,00,-8.80
2024,01,12,01,01,-8.80
2024,01,12,01,02,-8.70
2024,01,12,01,03,-8.80
2024,01,12,01,04,-8.80
2024,01,12,01,05,-8.80
2024,01,12,01,06,-8.80
2024,01,12,01,07,-8.80
2024,01,12,01,08,-8.80
2024,01,12,01,09,-8.80
2024,01,12,01,10,-8.80
2024,01,12,01,11,-8.80
2024,01,12,01,12,-8.80
2024,01,12,01,13,-8.80
2024,01,12,01,14,-8.80
2024,01,12,01,15,-8.80
2024,01,12,01,16,-8.80
2024,01,12,01,17,-8.80
2024,01,12,01,18,-8.80
2024,01,12,01,19,-8.80
2024,01,12,01,20,-8.80
2024,01,12,01,21,-8.80
2024,01,12,01,22,-8.80
2024,01,12,01,23,-8.80
2024,01,12,01,24,-8.80
2024,01,12,01,25,-8.80
2024,01,12,01,26,-8.80
2024,01,12,01,27,-8.80
2024,01,12,01,28,-8.80
2024,01,12,01,29,-8.80
2024,01,12,01,30,-8.80
2024,01,12,01,31,-8.80
2024,01,12,01,32,-8.90
2024,01,12,01,33,-8.90
2024,01,12,01,34,-8.90
2024,01,12,01,35,-8.90
2024,01,12,01,36,-8.90
2024,01,12,01,37,-8.90
2024,01,12,01,38,-8.90
2024,01,12,01,39,-8.90
2024,01,12,01,40,-8.90
2024,01,12,01,41,-8.90
2024,01,12,01,42,-8.90
2024,01,12,01,43,-8.90
2024,01,12,01,44,-8.90
2024,01,12,01,45,-8.90
2024,01,12,01,46,-8.90
2024,01,12,01,47,-8.90
2024,01,12,01,48,-8.90
2024,01,12,01,49,-8.90
2024,01,12,01,50,-8.90
2024,01,12,01,51,-8.90
2024,01,12,01,52,-8.90
2024,01,12,01,53,-8.90
2024,01,12,01,54,-9.00
2024,01,12,01,55,-9.00
2024,01,12,01,56,-8.90
2024,01,12,01,57,-9.00
2024,01,12,01,58,-9.00
2024,01,12,01,59,-9.00
2024,01,12,02,00,-9.00
2024,01,12,02,01,-9.00
2024,01,12,02,02,-9.00
2024,01,12,02,03,-9.00
2024,01,12,02,04,-9.00
2024,01,12,02,05,-9.10
2024,01,12,02,06,-9.10
2024,01,12,02,07,-9.10
2024,01,12,02,08,-9.10
2024,01,12,02,09,-9.10
2024,01,12,02,10,-9.10
2024,01,12,02,11,-9.10
2024,01,12,02,12,-9.10
2024,01,12,02,13,-9.10
2024,01,12,02,14,-9.10
2024,01,12,02,15,-9.10
2024,01,12,02,16,-9.10
2024,01,12,02,17,-9.10
2024,01,12,02,18,-9.10
2024,01,12,02,19,-9.10
2024,01,12,02,20,-9.10
2024,01,12,02,21,-9.10
2024,01,12,02,22,-9.10
2024,01,12,02,23,-9.10
2024,01,12,02,24,-9.10
2024,01,12,02,25,-9.10
2024,01,12,02,26,-9.10
2024,01,12,02,27,-9.10
2024,01,12,02,28,-9.20
2024,01,12,02,29,-9.10
2024,01,12,02,30,-9.20
2024,01,12,02,31,-9.20
2024,01,12,02,32,-9.20
2024,01,12,02,33,-9.20
2024,01,12,02,34,-9.20
2024,01,12,02,35,-9.20
2024,01,12,02,36,-9.20
2024,01,12,02,37,-9.20
2024,01,12,02,38,-9.20
2024,01,12,02,39,-9.20
2024,01,12,02,40,-9.20
2024,01,12,02,41,-9.20
2024,01,12,02,42,-9.20
2024,01,12,02,43,-9.20
2024,01,12,02,44,-9.20
2024,01,12,02,45,-9.20
2024,01,12,02,46,-9.20
2024,01,12,02,47,-9.20
2024,01,12,02,48,-9.20
2024,01,12,02,49,-9.20
2024,01,12,02,50,-9.20
2024,01,12,02,51,-9.20
2024,01,12,02,52,-9.20
2024,01,12,02,53,-9.20
2024,01,12,02,54,-9.20
2024,01,12,02,55,-9.20
2024,01,12,02,56,-9.20
2024,01,12,02,57,-9.20
2024,01,12,02,58,-9.20
2024,01,12,02,59,-9.20
2024,01,12,03,00,-9.20
2024,01,12,03,01,-9.20
2024,01,12,03,02,-9.20
2024,01,12,03,03,-9.20
2024,01,12,03,04,-9.20
2024,01,12,03,05,-9.20
2024,01,12,03,06,-9.20
2024,01,12,03,07,-9.20
2024,01,12,03,08,-9.20
2024,01,12,03,09,-9.30
2024,01,12,03,10,-9.30
2024,01,12,03,11,-9.30
2024,01,12,03,12,-9.30
2024,01,12,03,13,-9.30
2024,01,12,03,14,-9.30
2024,01,12,03,15,-9.30
2024,01,12,03,16,-9.30
2024,01,12,03,17,-9.40
2024,01,12,03,18,-9.40
2024,01,12,03,19,-9.30
2024,01,12,03,20,-9.40
2024,01,12,03,21,-9.30
2024,01,12,03,22,-9.40
2024,01,12,03,23,-9.40
2024,01,12,03,24,-9.40
2024,01,12,03,25,-9.40
2024,01,12,03,26,-9.50
2024,01,12,03,27,-9.50
2024,01,12,03,28,-9.50
2024,01,12,03,29,-9.50
2024,01,12,03,30,-9.50
2024,01,12,03,31,-9.50
2024,01,12,03,32,-9.50
2024,01,12,03,33,-9.60
2024,01,12,03,34,-9.60
2024,01,12,03,35,-9.50
2024,01,12,03,36,-9.60
2024,01,12,03,37,-9.60
2024,01,12,03,38,-9.60
2024,01,12,03,39,-9.60
2024,01,12,03,40,-9.60
2024,01,12,03,41,-9.50
2024,01,12,03,42,-9.60
2024,01,12,03,43,-9.50
2024,01,12,03,44,-9.50
2024,01,12,03,45,-9.50
2024,01,12,03,46,-9.50
2024,01,12,03,47,-9.50
2024,01,12,03,48,-9.50
2024,01,12,03,49,-9.50
2024,01,12,03,50,-9.50
2024,01,12,03,51,-9.50
2024,01,12,03,52,-9.50
2024,01,12,03,53,-9.60
2024,01,12,03,54,-9.60
2024,01,12,03,55,-9.60
2024,01,12,03,56,-9.60
2024,01,12,03,57,-9.50
2024,01,12,03,58,-9.50
2024,01,12,03,59,-9.50
2024,01,12,04,00,-9.50
2024,01,12,04,01,-9.50
2024,01,12,04,02,-9.50
2024,01,12,04,03,-9.50
2024,01,12,04,04,-9.50
2024,01,12,04,05,-9.50
2024,01,12,04,06,-9.60
2024,01,12,04,07,-9.60
2024,01,12,04,08,-9.60
2024,01,12,04,09,-9.60
2024,01,12,04,10,-9.60
2024,01,12,04,11,-9.60
2024,01,12,04,12,-9.60
2024,01,12,04,13,-9.60
2024,01,12,04,14,-9.60
2024,01,12,04,15,-9.60
2024,01,12,04,16,-9.60
2024,01,12,04,17,-9.60
2024,01,12,04,18,-9.60
2024,01,12,04,19,-9.60
2024,01,12,04,20,-9.50
2024,01,12,04,21,-9.50
2024,01,12,04,22,-9.50
2024,01,12,04,23,-9.50
2024,01,12,04,24,-9.50
2024,01,12,04,25,-9.50
2024,01,12,04,26,-9.50
2024,01,12,04,27,-9.50
2024,01,12,04,28,-9.50
2024,01,12,04,29,-9.50
2024,01,12,04,30,-9.50
2024,01,12,04,31,-9.50
2024,01,12,04,32,-9.50
2024,01,12,04,33,-9.50
2024,01,12,04,34,-9.50
2024,01,12,04,35,-9.50
2024,01,12,04,36,-9.50
2024,01,12,04,37,-9.50
2024,01,12,04,38,-9.50
2024,01,12,04,39,-9.50
2024,01,12,04,40,-9.50
2024,01,12,04,41,-9.50
2024,01,12,04,42,-9.40
2024,01,12,04,43,-9.50
2024,01,12,04,44,-9.50
2024,01,12,04,45,-9.50
2024,01,12,04,46,-9.50
2024,01,12,04,47,-9.50
2024,01,12,04,48,-9.50
2024,01,12,04,49,-9.50
2024,01,12,04,50,-9.50
2024,01,12,04,51,-9.50
2024,01,12,04,52,-9.50
2024,01,12,04,53,-9.50
2024,01,12,04,54,-9.50
2024,01,12,04,55,-9.50
2024,01,12,04,56,-9.50
2024,01,12,04,57,-9.50
2024,01,12,04,58,-9.50
2024,01,12,04,59,-9.50
2024,01,12,05,00,-9.50
2024,01,12,05,01,-9.50
2024,01,12,05,02,-9.50
2024,01,12,05,03,-9.50
2024,01,12,05,04,-9.50
2024,01,12,05,05,-9.50
2024,01,12,05,06,-9.60
2024,01,12,05,07,-9.60
2024,01,12,05,08,-9.60
2024,01,12,05,09,-9.60
2024,01,12,05,10,-9.60
2024,01,12,05,11,-9.60
2024,01,12,05,12,-9.60
2024,01,12,05,13,-9.60
2024,01,12,05,14,-9.60
2024,01,12,05,15,-9.60
2024,01,12,05,16,-9.60
2024,01,12,05,17,-9.60
2024,01,12,05,18,-9.60
2024,01,12,05,19,-9.60
2024,01,12,05,20,-9.60
2024,01,12,05,21,-9.60
2024,01,12,05,22,-9.60
2024,01,12,05,23,-9.60
2024,01,12,05,24,-9.70
2024,01,12,05,25,-9.70
2024,01,12,05,26,-9.70
2024,01,12,05,27,-9.60
2024,01,12,05,28,-9.60
2024,01,12,05,29,-9.60
2024,01,12,05,30,-9.60
2024,01,12,05,31,-9.70
2024,01,12,05,32,-9.70
2024,01,12,05,33,-9.70
2024,01,12,05,34,-9.70
2024,01,12,05,35,-9.70
2024,01,12,05,36,-9.70
2024,01,12,05,37,-9.70
2024,01,12,05,38,-9.70
2024,01,12,05,39,-9.70
2024,01,12,05,40,-9.70
2024,01,12,05,41,-9.70
2024,01,12,05,42,-9.70
2024,01,12,05,43,-9.70
2024,01,12,05,44,-9.70
2024,01,12,05,45,-9.70
2024,01,12,05,46,-9.70
2024,01,12,05,47,-9.70
2024,01,12,05,48,-9.70
2024,01,12,05,49,-9.70
2024,01,12,05,50,-9.70
2024,01,12,05,51,-9.70
2024,01,12,05,52,-9.70
2024,01,12,05,53,-9.70
2024,01,12,05,54,-9.70
2024,01,12,05,55,-9.70
2024,01,12,05,56,-9.70
2024,01,12,05,57,-9.70
2024,01,12,05,58,-9.70
2024,01,12,05,59,-9.80
2024,01,12,06,00,-9.80
2024,01,12,06,01,-9.80
2024,01,12,06,02,-9.80
2024,01,12,06,03,-9.80
2024,01,12,06,04,-9.80
2024,01,12,06,05,-9.80
2024,01,12,06,06,-9.80
2024,01,12,06,07,-9.80
2024,01,12,06,08,-9.90
2024,01,12,06,09,-9.90
2024,01,12,06,10,-9.80
2024,01,12,06,11,-9.80
2024,01,12,06,12,-9.90
2024,01,12,06,13,-9.90
2024,01,12,06,14,-9.90
2024,01,12,06,15,-9.90
2024,01,12,06,16,-9.90
2024,01,12,06,17,-9.90
2024,01,12,06,18,-9.90
2024,01,12,06,19,-9.90
2024,01,12,06,20,-9.90
2024,01,12,06,21,-9.90
2024,01,12,06,22,-9.90
2024,01,12,06,23,-10.00
2024,01,12,06,24,-10.00
2024,01,12,06,25,-10.00
2024,01,12,06,26,-10.00
2024,01,12,06,27,-10.10
2024,01,12,06,28,-10.10
2024,01,12,06,29,-10.10
2024,01,12,06,30,-10.10
2024,01,12,06,31,-10.10
2024,01,12,06,32,-10.10
2024,01,12,06,33,-10.10
2024,01,12,06,34,-10.10
2024,01,12,06,35,-10.10
2024,01,12,06,36,-10.10
2024,01,12,06,37,-10.10
2024,01,12,06,38,-10.10
2024,01,12,06,39,-10.10
2024,01,12,06,40,-10.10
2024,01,12,06,41,-10.10
2024,01,12,06,42,-10.10
2024,01,12,06,43,-10.10
2024,01,12,06,44,-10.10
2024,01,12,06,45,-10.10
2024,01,12,06,46,-10.10
2024,01,12,06,47,-10.10
2024,01,12,06,48,-10.10
2024,01,12,06,49,-10.10
2024,01,12,06,50,-10.10
2024,01,12,06,51,-10.10
2024,01,12,06,52,-10.10
2024,01,12,06,53,-10.10
2024,01,12,06,54,-10.10
2024,01,12,06,55,-10.10
2024,01,12,06,56,-10.20
2024,01,12,06,57,-10.20
2024,01,12,06,58,-10.20
2024,01,12,06,59,-10.20
2024,01,12,07,00,-10.20
2024,01,12,07,01,-10.20
2024,01,12,07,02,-10.30
2024,01,12,07,03,-10.30
2024,01,12,07,04,-10.30
2024,01,12,07,05,-10.30
2024,01,12,07,06,-10.30
2024,01,12,07,07,-10.30
2024,01,12,07,08,-10.40
2024,01,12,07,09,-10.40
2024,01,12,07,10,-10.40
2024,01,12,07,11,-10.40
2024,01,12,07,12,-10.40
2024,01,12,07,13,-10.40
2024,01,12,07,14,-10.40
2024,01,12,07,15,-10.40
2024,01,12,07,16,-10.40
2024,01,12,07,17,-10.40
2024,01,12,07,18,-10.40
2024,01,12,07,19,-10.40
2024,01,12,07,20,-10.40
2024,01,12,07,21,-10.50
2024,01,12,07,22,-10.50
2024,01,12,07,23,-10.50
2024,01,12,07,24,-10.50
2024,01,12,07,25,-10.50
2024,01,12,07,26,-10.50
2024,01,12,07,27,-10.50
2024,01,12,07,28,-10.60
2024,01,12,07,29,-10.60
2024,01,12,07,30,-10.60
2024,01,12,07,31,-10.60
2024,01,12,07,32,-10.60
2024,01,12,07,33,-10.60
2024,01,12,07,34,-10.60
2024,01,12,07,35,-10.60
2024,01,12,07,36,-10.60
2024,01,12,07,37,-10.60
2024,01,12,07,38,-10.60
2024,01,12,07,39,-10.60
2024,01,12,07,40,-10.60
2024,01,12,07,41,-10.60
2024,01,12,07,42,-10.60
2024,01,12,07,43,-10.60
2024,01,12,07,44,-10.50
2024,01,12,07,45,-10.50
2024,01,12,07,46,-10.50
2024,01,12,07,47,-10.40
2024,01,12,07,48,-10.40
2024,01,12,07,49,-10.40
2024,01,12,07,50,-10.40
2024,01,12,07,51,-10.40
2024,01,12,07,52,-10.40
2024,01,12,07,53,-10.40
2024,01,12,07,54,-10.40
2024,01,12,07,55,-10.40
2024,01,12,07,56,-10.40
2024,01,12,07,57,-10.40
2024,01,12,07,58,-10.40
2024,01,12,07,59,-10.40
2024,01,12,08,00,-10.40
2024,01,12,08,01,-10.40
2024,01,12,08,02,-10.40
2024,01,12,08,03,-10.40
2024,01,12,08,04,-10.40
2024,01,12,08,05,-10.40
2024,01,12,08,06,-10.40
2024,01,12,08,07,-10.40
2024,01,12,08,08,-10.40
2024,01,12,08,09,-10.40
2024,01,12,08,10,-10.50
2024,01,12,08,11,-10.50
2024,01,12,08,12,-10.60
2024,01,12,08,13,-10.60
2024,01,12,08,14,-10.60
2024,01,12,08,15,-10.60
2024,01,12,08,16,-10.60
2024,01,12,08,17,-10.70
2024,01,12,08,18,-10.70
2024,01,12,08,19,-10.70
2024,01,12,08,20,-10.70
2024,01,12,08,21,-10.70
2024,01,12,08,22,-10.80
2024,01,12,08,23,-10.80
2024,01,12,08,24,-10.80
2024,01,12,08,25,-10.80
2024,01,12,08,26,-10.80
2024,01,12,08,27,-10.80
2024,01,12,08,28,-10.80
2024,01,12,08,29,-10.80
2024,01,12,08,30,-10.80
2024,01,12,08,31,-10.80
2024,01,12,08,32,-10.80
2024,01,12,08,33,-10.80
2024,01,12,08,34,-10.80
2024,01,12,08,35,-10.80
2024,01,12,08,36,-10.80
2024,01,12,08,37,-10.80
2024,01,12,08,38,-10.80
2024,01,12,08,39,-10.80
2024,01,12,08,40,-10.70
2024,01,12,08,41,-10.70
2024,01,12,08,42,-10.70
2024,01,12,08,43,-10.70
2024,01,12,08,44,-10.70
2024,01,12,08,45,-10.70
2024,01,12,08,46,-10.70
2024,01,12,08,47,-10.70
2024,01,12,08,48,-10.60
2024,01,12,08,49,-10.60
2024,01,12,08,50,-10.60
2024,01,12,08,51,-10.60
2024,01,12,08,52,-10.50
2024,01,12,08,53,-10.50
2024,01,12,08,54,-10.40
2024,01,12,08,55,-10.40
2024,01,12,08,56,-10.40
2024,01,12,08,57,-10.30
2024,01,12,08,58,-10.30
2024,01,12,08,59,-10.30
2024,01,12,09,00,-10.30
2024,01,12,09,01,-10.20
2024,01,12,09,02,-10.20
2024,01,12,09,03,-10.20
2024,01,12,09,04,-10.20
2024,01,12,09,05,-10.20
2024,01,12,09,06,-10.20
2024,01,12,09,07,-10.20
2024,01,12,09,08,-10.10
2024,01,12,09,09,-10.10
2024,01,12,09,10,-10.10
2024,01,12,09,11,-10.00
2024,01,12,09,12,-10.00
2024,01,12,09,13,-9.90
2024,01,12,09,14,-9.90
2024,01,12,09,15,-9.80
2024,01,12,09,16,-9.80
2024,01,12,09,17,-9.80
2024,01,12,09,18,-9.80
2024,01,12,09,19,-9.70
2024,01,12,09,20,-9.70
2024,01,12,09,21,-9.70
2024,01,12,09,22,-9.60
2024,01,12,09,23,-9.60
2024,01,12,09,24,-9.60
2024,01,12,09,25,-9.60
2024,01,12,09,26,-9.50
2024,01,12,09,27,-9.50
2024,01,12,09,28,-9.50
2024,01,12,09,29,-9.50
2024,01,12,09,30,-9.50
2024,01,12,09,31,-9.50
2024,01,12,09,32,-9.50
2024,01,12,09,33,-9.50
2024,01,12,09,34,-9.50
2024,01,12,09,35,-9.40
2024,01,12,09,36,-9.40
2024,01,12,09,37,-9.40
2024,01,12,09,38,-9.40
2024,01,12,09,39,-9.40
2024,01,12,09,40,-9.30
2024,01,12,09,41,-9.30
2024,01,12,09,42,-9.30
2024,01,12,09,43,-9.20
2024,01,12,09,44,-9.20
2024,01,12,09,45,-9.20
2024,01,12,09,46,-9.20
2024,01,12,09,47,-9.10
2024,01,12,09,48,-9.10
2024,01,12,09,49,-9.10
2024,01,12,09,50,-9.00
2024,01,12,09,51,-8.90
2024,01,12,09,52,-8.90
2024,01,12,09,53,-8.90
2024,01,12,09,54,-8.90
2024,01,12,09,55,-8.90
2024,01,12,09,56,-8.80
2024,01,12,09,57,-8.80
2024,01,12,09,58,-8.80
2024,01,12,09,59,-8.80
2024,01,12,10,00,-8.80
2024,01,12,10,01,-8.80
2024,01,12,10,02,-8.80
2024,01,12,10,03,-8.70
2024,01,12,10,04,-8.70
2024,01,12,10,05,-8.70
2024,01,12,10,06,-8.70
2024,01,12,10,07,-8.70
2024,01,12,10,08,-8.60
2024,01,12,10,09,-8.60
2024,01,12,10,10,-8.50
2024,01,12,10,11,-8.50
2024,01,12,10,12,-8.50
2024,01,12,10,13,-8.40
2024,01,12,10,14,-8.40
2024,01,12,10,15,-8.40
2024,01,12,10,16,-8.30
2024,01,12,10,17,-8.30
2024,01,12,10,18,-8.30
2024,01,12,10,19,-8.30
2024,01,12,10,20,-8.30
2024,01,12,10,21,-8.20
2024,01,12,10,22,-8.20
2024,01,12,10,23,-8.20
2024,01,12,10,24,-8.20
2024,01,12,10,25,-8.20
2024,01,12,10,26,-8.20
2024,01,12,10,27,-8.20
2024,01,12,10,28,-8.10
2024,01,12,10,29,-8.10
2024,01,12,10,30,-8.10
2024,01,12,10,31,-8.10
2024,01,12,10,32,-8.10
2024,01,12,10,33,-8.10
2024,01,12,10,34,-8.00
2024,01,12,10,35,-8.00
2024,01,12,10,36,-8.00
2024,01,12,10,37,-8.10
2024,01,12,10,38,-8.10
2024,01,12,10,39,-8.10
2024,01,12,10,40,-8.00
2024,01,12,10,41,-8.00
2024,01,12,10,42,-7.90
2024,01,12,10,43,-7.90
2024,01,12,10,44,-7.90
2024,01,12,10,45,-7.90
2024,01,12,10,46,-7.90
2024,01,12,10,47,-7.90
2024,01,12,10,48,-7.80
2024,01,12,10,49,-7.80
2024,01,12,10,50,-7.80
2024,01,12,10,51,-7.80
2024,01,12,10,52,-7.70
2024,01,12,10,53,-7.70
2024,01,12,10,54,-7.70
2024,01,12,10,55,-7.60
2024,01,12,10,56,-7.60
2024,01,12,10,57,-7.60
2024,01,12,10,58,-7.60
2024,01,12,10,59,-7.60
2024,01,12,11,00,-7.60
2024,01,12,11,01,-7.60
2024,01,12,11,02,-7.60
2024,01,12,11,03,-7.50
2024,01,12,11,04,-7.50
2024,01,12,11,05,-7.50
2024,01,12,11,06,-7.50
2024,01,12,11,07,-7.40
2024,01,12,11,08,-7.40
2024,01,12,11,09,-7.30
2024,01,12,11,10,-7.40
2024,01,12,11,11,-7.30
2024,01,12,11,12,-7.30
2024,01,12,11,13,-7.30
2024,01,12,11,14,-7.30
2024,01,12,11,15,-7.30
2024,01,12,11,16,-7.30
2024,01,12,11,17,-7.30
2024,01,12,11,18,-7.30
2024,01,12,11,19,-7.30
2024,01,12,11,20,-7.30
2024,01,12,11,21,-7.30
2024,01,12,11,22,-7.30
2024,01,12,11,23,-7.30
2024,01,12,11,24,-7.30
2024,01,12,11,25,-7.30
2024,01,12,11,26,-7.30
2024,01,12,11,27,-7.30
2024,01,12,11,28,-7.20
2024,01,12,11,29,-7.20
2024,01,12,11,30,-7.10
2024,01,12,11,31,-7.10
2024,01,12,11,32,-7.10
2024,01,12,11,33,-7.00
2024,01,12,11,34,-7.00
2024,01,12,11,35,-6.90
2024,01,12,11,36,-6.90
2024,01,12,11,37,-6.90
2024,01,12,11,38,-6.90
2024,01,12,11,39,-6.90
2024,01,12,11,40,-6.90
2024,01,12,11,41,-6.90
2024,01,12,11,42,-6.90
2024,01,12,11,43,-6.90
2024,01,12,11,44,-6.90
2024,01,12,11,45,-6.90
2024,01,12,11,46,-6.80
2024,01,12,11,47,-6.80
2024,01,12,11,48,-6.80
2024,01,12,11,49,-6.80
2024,01,12,11,50,-6.90
2024,01,12,11,51,-6.90
2024,01,12,11,52,-6.90
2024,01,12,11,53,-6.90
2024,01,12,11,54,-6.90
2024,01,12,11,55,-6.80
2024,01,12,11,56,-6.80
2024,01,12,11,57,-6.80
2024,01,12,11,58,-6.80
2024,01,12,11,59,-6.70
2024,01,12,12,00,-6.70
2024,01,12,12,01,-6.60
2024,01,12,12,02,-6.60
2024,01,12,12,03,-6.60
2024,01,12,12,04,-6.60
2024,01,12,12,05,-6.60
2024,01,12,12,06,-6.60
2024,01,12,12,07,-6.60
2024,01,12,12,08,-6.70
2024,01,12,12,09,-6.70
2024,01,12,12,10,-6.60
2024,01,12,12,11,-6.60
2024,01,12,12,12,-6.60
2024,01,12,12,13,-6.50
2024,01,12,12,14,-6.50
2024,01,12,12,15,-6.50
2024,01,12,12,16,-6.50
2024,01,12,12,17,-6.40
2024,01,12,12,18,-6.40
2024,01,12,12,19,-6.30
2024,01,12,12,20,-6.30
2024,01,12,12,21,-6.20
2024,01,12,12,22,-6.20
2024,01,12,12,23,-6.20
2024,01,12,12,24,-6.20
2024,01,12,12,25,-6.20
2024,01,12,12,26,-6.30
2024,01,12,12,27,-6.30
2024,01,12,12,28,-6.40
2024,01,12,12,29,-6.40
2024,01,12,12,30,-6.30
2024,01,12,12,31,-6.30
2024,01,12,12,32,-6.30
2024,01,12,12,33,-6.30
2024,01,12,12,34,-6.30
2024,01,12,12,35,-6.20
2024,01,12,12,36,-6.30
2024,01,12,12,37,-6.30
2024,01,12,12,38,-6.20
2024,01,12,12,39,-6.20
2024,01,12,12,40,-6.10
2024,01,12,12,41,-6.00
2024,01,12,12,42,-5.90
2024,01,12,12,43,-6.00
2024,01,12,12,44,-6.00
2024,01,12,12,45,-6.10
2024,01,12,12,46,-6.10
2024,01,12,12,47,-6.10
2024,01,12,12,48,-6.10
2024,01,12,12,49,-6.10
2024,01,12,12,50,-6.10
2024,01,12,12,51,-6.00
2024,01,12,12,52,-6.00
2024,01,12,12,53,-5.90
2024,01,12,12,54,-5.90
2024,01,12,12,55,-5.80
2024,01,12,12,56,-5.80
2024,01,12,12,57,-5.90
2024,01,12,12,58,-5.90
2024,01,12,12,59,-5.90
2024,01,12,13,00,-5.90
2024,01,12,13,01,-5.90
2024,01,12,13,02,-5.90
2024,01,12,13,03,-5.90
2024,01,12,13,04,-5.80
2024,01,12,13,05,-5.80
2024,01,12,13,06,-5.80
2024,01,12,13,07,-5.70
2024,01,12,13,08,-5.70
2024,01,12,13,09,-5.70
2024,01,12,13,10,-5.60
2024,01,12,13,11,-5.60
2024,01,12,13,12,-5.70
2024,01,12,13,13,-5.70
2024,01,12,13,14,-5.70
2024,01,12,13,15,-5.70
2024,01,12,13,16,-5.70
2024,01,12,13,17,-5.80
2024,01,12,13,18,-5.80
2024,01,12,13,19,-5.80
2024,01,12,13,20,-5.80
2024,01,12,13,21,-5.80
2024,01,12,13,22,-5.80
2024,01,12,13,23,-5.80
2024,01,12,13,24,-5.90
2024,01,12,13,25,-5.80
2024,01,12,13,26,-5.80
2024,01,12,13,27,-5.80
2024,01,12,13,28,-5.80
2024,01,12,13,29,-5.80
2024,01,12,13,30,-5.80
2024,01,12,13,31,-5.80
2024,01,12,13,32,-5.80
2024,01,12,13,33,-5.80
2024,01,12,13,34,-5.90
2024,01,12,13,35,-5.90
2024,01,12,13,36,-5.90
2024,01,12,13,37,-5.90
2024,01,12,13,38,-5.90
2024,01,12,13,39,-5.90
2024,01,12,13,40,-5.90
2024,01,12,13,41,-5.80
2024,01,12,13,42,-5.80
2024,01,12,13,43,-5.80
2024,01,12,13,44,-5.80
2024,01,12,13,45,-5.80
2024,01,12,13,46,-5.80
2024,01,12,13,47,-5.80
2024,01,12,13,48,-5.80
2024,01,12,13,49,-5.80
2024,01,12,13,50,-5.80
2024,01,12,13,51,-5.80
2024,01,12,13,52,-5.80
2024,01,12,13,53,-5.80
2024,01,12,13,54,-5.80
2024,01,12,13,55,-5.70
2024,01,12,13,56,-5.70
2024,01,12,13,57,-5.70
2024,01,12,13,58,-5.70
2024,01,12,13,59,-5.80
2024,01,12,14,00,-5.80
2024,01,12,14,01,-5.80
2024,01,12,14,02,-5.80
2024,01,12,14,03,-5.80
2024,01,12,14,04,-5.70
2024,01,12,14,05,-5.70
2024,01,12,14,06,-5.70
2024,01,12,14,07,-5.70
2024,01,12,14,08,-5.70
2024,01,12,14,09,-5.60
2024,01,12,14,10,-5.60
2024,01,12,14,11,-5.60
2024,01,12,14,12,-5.60
2024,01,12,14,13,-5.60
2024,01,12,14,14,-5.50
2024,01,12,14,15,-5.50
2024,01,12,14,16,-5.50
2024,01,12,14,17,-5.50
2024,01,12,14,18,-5.50
2024,01,12,14,19,-5.50
2024,01,12,14,20,-5.50
2024,01,12,14,21,-5.50
2024,01,12,14,22,-5.50
2024,01,12,14,23,-5.50
2024,01,12,14,24,-5.50
2024,01,12,14,25,-5.50
2024,01,12,14,26,-5.50
2024,01,12,14,27,-5.50
2024,01,12,14,28,-5.50
2024,01,12,14,29,-5.50
2024,01,12,14,30,-5.50
2024,01,12,14,31,-5.50
2024,01,12,14,32,-5.50
2024,01,12,14,33,-5.50
2024,01,12,14,34,-5.50
2024,01,12,14,35,-5.50
2024,01,12,14,36,-5.40
2024,01,12,14,37,-5.40
2024,01,12,14,38,-5.40
2024,01,12,14,39,-5.40
2024,01,12,14,40,-5.40
2024,01,12,14,41,-5.40
2024,01,12,14,42,-5.40
2024,01,12,14,43,-5.40
2024,01,12,14,44,-5.40
2024,01,12,14,45,-5.40
2024,01,12,14,46,-5.40
2024,01,12,14,47,-5.40
2024,01,12,14,48,-5.40
2024,01,12,14,49,-5.40
2024,01,12,14,50,-5.40
2024,01,12,14,51,-5.40
2024,01,12,14,52,-5.40
2024,01,12,14,53,-5.40
2024,01,12,14,54,-5.40
2024,01,12,14,55,-5.30
2024,01,12,14,56,-5.30
2024,01,12,14,57,-5.30
2024,01,12,14,58,-5.30
2024,01,12,14,59,-5.30
2024,01,12,15,00,-5.30
2024,01,12,15,01,-5.20
2024,01,12,15,02,-5.20
2024,01,12,15,03,-5.20
2024,01,12,15,04,-5.20
2024,01,12,15,05,-5.20
2024,01,12,15,06,-5.20
2024,01,12,15,07,-5.30
2024,01,12,15,08,-5.30
2024,01,12,15,09,-5.30
2024,01,12,15,10,-5.20
2024,01,12,15,11,-5.20
2024,01,12,15,12,-5.20
2024,01,12,15,13,-5.20
2024,01,12,15,14,-5.20
2024,01,12,15,15,-5.20
2024,01,12,15,16,-5.20
2024,01,12,15,17,-5.20
2024,01,12,15,18,-5.30
2024,01,12,15,19,-5.30
2024,01,12,15,20,-5.30
2024,01,12,15,21,-5.30
2024,01,12,15,22,-5.30
2024,01,12,15,23,-5.30
2024,01,12,15,24,-5.30
2024,01,12,15,25,-5.30
2024,01,12,15,26,-5.30
2024,01,12,15,27,-5.30
2024,01,12,15,28,-5.30
2024,01,12,15,29,-5.30
2024,01,12,15,30,-5.30
2024,01,12,15,31,-5.30
2024,01,12,15,32,-5.30
2024,01,12,15,33,-5.30
2024,01,12,15,34,-5.30
2024,01,12,15,35,-5.30
2024,01,12,15,36,-5.30
2024,01,12,15,37,-5.30
2024,01,12,15,38,-5.40
2024,01,12,15,39,-5.40
2024,01,12,15,40,-5.40
2024,01,12,15,41,-5.40
2024,01,12,15,42,-5.40
2024,01,12,15,43,-5.40
2024,01,12,15,44,-5.40
2024,01,12,15,45,-5.30
2024,01,12,15,46,-5.30
2024,01,12,15,47,-5.30
2024,01,12,15,48,-5.30
2024,01,12,15,49,-5.30
2024,01,12,15,50,-5.30
2024,01,12,15,51,-5.30
2024,01,12,15,52,-5.30
2024,01,12,15,53,-5.30
2024,01,12,15,54,-5.30
2024,01,12,15,55,-5.30
2024,01,12,15,56,-5.30
2024,01,12,15,57,-5.30
2024,01,12,15,58,-5.20
2024,01,12,15,59,-5.20
2024,01,12,16,00,-5.20
2024,01,12,16,01,-5.20
2024,01,12,16,02,-5.20
2024,01,12,16,03,-5.30
2024,01,12,16,04,-5.30
2024,01,12,16,05,-5.30
2024,01,12,16,06,-5.30
2024,01,12,16,07,-5.30
2024,01,12,16,08,-5.30
2024,01,12,16,09,-5.30
2024,01,12,16,10,-5.30
2024,01,12,16,11,-5.30
2024,01,12,16,12,-5.30
2024,01,12,16,13,-5.30
2024,01,12,16,14,-5.30
2024,01,12,16,15,-5.30
2024,01,12,16,16,-5.30
2024,01,12,16,17,-5.30
2024,01,12,16,18,-5.40
2024,01,12,16,19,-5.40
2024,01,12,16,20,-5.40
2024,01,12,16,21,-5.40
2024,01,12,16,22,-5.40
2024,01,12,16,23,-5.40
2024,01,12,16,24,-5.40
2024,01,12,16,25,-5.40
2024,01,12,16,26,-5.40
2024,01,12,16,27,-5.40
2024,01,12,16,28,-5.40
2024,01,12,16,29,-5.40
2024,01,12,16,30,-5.40
2024,01,12,16,31,-5.40
2024,01,12,16,32,-5.40
2024,01,12,16,33,-5.40
2024,01,12,16,34,-5.40
2024,01,12,16,35,-5.40
2024,01,12,16,36,-5.40
2024,01,12,16,37,-5.30
2024,01,12,16,38,-5.30
2024,01,12,16,39,-5.40
2024,01,12,16,40,-5.40
2024,01,12,16,41,-5.40
2024,01,12,16,42,-5.40
2024,01,12,16,43,-5.50
2024,01,12,16,44,-5.50
2024,01,12,16,45,-5.50
2024,01,12,16,46,-5.50
2024,01,12,16,47,-5.50
2024,01,12,16,48,-5.50
2024,01,12,16,49,-5.50
2024,01,12,16,50,-5.50
2024,01,12,16,51,-5.50
2024,01,12,16,52,-5.50
2024,01,12,16,53,-5.50
2024,01,12,16,54,-5.60
2024,01,12,16,55,-5.60
2024,01,12,16,56,-5.60
2024,01,12,16,57,-5.60
2024,01,12,16,58,-5.60
2024,01,12,16,59,-5.50
2024,01,12,17,00,-5.50
2024,01,12,17,01,-5.50
2024,01,12,17,02,-5.50
2024,01,12,17,03,-5.50
2024,01,12,17,04,-5.50
2024,01,12,17,05,-5.50
2024,01,12,17,06,-5.50
2024,01,12,17,07,-5.50
2024,01,12,17,08,-5.50
2024,01,12,17,09,-5.50
2024,01,12,17,10,-5.50
2024,01,12,17,11,-5.50
2024,01,12,17,12,-5.50